Content
SEND FEEDBACK

Daily
Averages
Monthly
Summary
United States of America

BEDFORD PARK, ILLINOIS


Home > North America > United States > Illinois
Elevation: 623 feet     Latitude: 41 46N     Longitude: 087 45W

WEATHER
 
SELECT A DAY
Number of Records: 192,370;   Date Range: 1/1/95 - 10/23/14
 
SHARE

PRINT THIS DATA

[ ← Previous Day ]
WEATHER ALMANAC - FEBRUARY 19, 2013
[ Next Day → ]
[ °C ]   °F
Weather ElementAverageHighLow
Temperature16.8 °F26.1 °F (1:51 am)12 °F (10:51 pm)
Dewpoint7.7 °F19.9 °F (1:51 am)1.9 °F (9:51 pm)
Humidity67.7 %78 % (1:51 am)59 % (7:51 pm)
Barometer29.91 in30.23 in (11:51 pm)29.64 in (2:16 am)
Wind Speed19.7 mph25.3 mph (1:51 am)
Wind Gust36.8 mph (2:51 am)
Weather ElementAverage
Visibility7 mi
Wind DirectionW (273.2 °)

Weather ElementTotal
Precipitation---
Heating Degree Days46 (Base 65)
Averaged from 25 records on February 19, 2013
WEATHER CONDITIONS BREAKOUT
WIND DIRECTION BREAKOUT
WEATHER BY HOUR - FEBRUARY 19, 2013
[ °C ]   °F
Local TimeTemperatureDewpointHumidityBarometerVisibilityWind DirectionWind SpeedGust SpeedPrecipitationEventsConditions
1:51 AM26.1 °F19.9 °F78 %29.65 in10.0 miWest (270°)25.3 mph35.7 mphOvercast
2:16 AM24.8 °F17.6 °F74 %29.64 in10.0 miWest (270°)21.9 mph34.5 mphOvercast
2:51 AM23.0 °F17.1 °F78 %29.68 in10.0 miWest (270°)20.7 mph36.8 mphOvercast
3:51 AM21.0 °F12.9 °F71 %29.71 in9.0 miWest (260°)23.0 mph34.5 mph0.00 inSnowLight Snow
4:51 AM19.0 °F10.0 °F68 %29.73 in6.0 miWest (270°)23.0 mph36.8 mph0.00 inSnowLight Snow
5:26 AM17.6 °F10.4 °F73 %29.72 in1.2 miWest (270°)23.0 mph34.5 mph0.00 inSnowLight Snow
5:51 AM18.0 °F10.0 °F71 %29.75 in3.0 miWest (270°)18.4 mph36.8 mph0.00 inSnowLight Snow
6:36 AM17.6 °F10.4 °F73 %29.74 in1.8 miWest (260°)19.6 mph28.8 mph0.00 inSnowLight Snow
6:51 AM16.0 °F8.1 °F71 %29.78 in2.0 miWest (260°)25.3 mph32.2 mph0.00 inSnowLight Snow
7:09 AM15.8 °F6.8 °F68 %29.76 in4.0 miWest (270°)21.9 mph32.2 mph0.00 inSnowLight Snow
7:51 AM15.1 °F7.0 °F70 %29.82 in5.0 miWest (260°)24.2 mph31.1 mph0.00 inSnowLight Snow
8:51 AM15.1 °F6.1 °F68 %29.85 in7.0 miWest (260°)25.3 mph33.4 mph0.00 inSnowLight Snow
9:51 AM15.1 °F6.1 °F68 %29.88 in6.0 miWest (270°)15.0 mph33.4 mph0.00 inSnowLight Snow
10:51 AM15.1 °F6.1 °F68 %29.92 in5.0 miWest (270°)20.7 mph28.8 mph0.00 inSnowLight Snow
12:51 PM16.0 °F5.0 °F62 %29.95 in8.0 miWest (270°)23.0 mph34.5 mph0.00 inSnowLight Snow
1:51 PM15.1 °F5.0 °F64 %29.98 in9.0 miWest (270°)18.4 mph27.6 mph0.00 inSnowLight Snow
2:51 PM16.0 °F6.1 °F65 %30.00 in6.0 miWest (260°)25.3 mph33.4 mph0.00 inSnowLight Snow
3:51 PM16.0 °F5.0 °F62 %30.04 in6.0 miWest (280°)15.0 mph29.9 mph0.00 inSnowLight Snow
4:51 PM16.0 °F5.0 °F62 %30.07 in8.0 miWest (280°)16.1 mph27.6 mph0.00 inSnowLight Snow
6:51 PM15.1 °F5.0 °F64 %30.13 in9.0 miWest (280°)17.3 mph27.6 mph0.00 inSnowLight Snow
7:51 PM15.1 °F3.0 °F59 %30.15 in10.0 miWNW (290°)21.9 mph25.3 mph0.00 inOvercast
8:51 PM14.0 °F3.0 °F62 %30.18 in10.0 miWNW (290°)11.5 mph25.3 mphMostly Cloudy
9:51 PM12.9 °F1.9 °F62 %30.20 in10.0 miWNW (290°)12.7 mph21.9 mphPartly Cloudy
10:51 PM12.0 °F3.0 °F67 %30.21 in10.0 miWNW (290°)13.8 mphMostly Cloudy
11:51 PM12.0 °F1.9 °F64 %30.23 in10.0 miWNW (300°)10.4 mphPartly Cloudy
Hourly data recorded from KMDW, located miles away from Bedford Park, Illinois







STORIES FROM OUR PARTNERS